Regional Weather Roundup
Issued by NWS Northern Indiana

Home | Current Version | Previous Version | Graphics & Text | Print | Product List | Glossary On
Versions: 1 2 3 4 5 6 7 8 9 10 11 12 13 14 15 16 17 18 19 20 21 22 23 24 25 26 27 28 29 30 31 32 33 34 35 36 37 38 39 40 41 42 43 44 45 46 47 48 49 50
000
ASUS43 KIWX 032000
RWRIWX

KIWX WEATHER ROUNDUP
NATIONAL WEATHER SERVICE NORTHERN INDIANA
400 PM EDT SUN MAY 03 2015

NOTE: "FAIR" INDICATES FEW OR NO CLOUDS BELOW 12,000 FEET WITH NO
SIGNIFICANT WEATHER AND/OR OBSTRUCTIONS TO VISIBILITY.

* THESE STATIONS ARE NOT UNDER NWS QUALITY CONTROL. THEY ALSO MAY NOT
  REPORT WEATHER SUCH AS PRECIPITATION OR FOG.

INZ001>027-032100-
NORTHERN INDIANA

CITY           SKY/WX    TMP DP  RH WIND       PRES   REMARKS
GARY*          PTSUNNY   81 N/A N/A SW21      29.95F
SOUTH BEND     CLOUDY    79  41  25 SW16      29.99S
GOSHEN         PTSUNNY   76  47  35 S15G23    30.00F
ANGOLA*        MOSUNNY   79  72  78 W7        30.01F
FORT WAYNE     MOSUNNY   78  46  32 SW14G23   30.03F
PERU/GRISSOM   PTSUNNY   78  49  36 SW13G22   30.01F

$$
INZ028>050-032100-
CENTRAL INDIANA

CITY           SKY/WX    TMP DP  RH WIND       PRES   REMARKS
LAFAYETTE      SUNNY     77  44  30 SW13G23   30.00F
MUNCIE*        SUNNY     77  46  33 SW13G21   30.05F
INDIANAPOLIS   PTSUNNY   78  48  34 S10       30.03F

$$
MIZ043>046-050>051-056>058-064>065-071>073-077>080-032100-
SOUTHWEST LOWER MICHIGAN

CITY           SKY/WX    TMP DP  RH WIND       PRES   REMARKS
BATTLE CREEK   PTSUNNY   79  46  31 SW15G24   29.99F
BENTON HARBOR  CLOUDY    77  48  35 SW13      29.96F
COLDWATER*     MOSUNNY   75  45  33 SW6G18    30.00F
HILLSDALE*     SUNNY     78  42  27 SW8G21    30.01F
HOLLAND        CLOUDY    76  46  34 SW17G24   29.97F
GRAND RAPIDS   PTSUNNY   76  44  32 SW14      29.96F
KALAMAZOO      PTSUNNY   78  46  32 S13       29.98F
STURGIS*       CLOUDY    75  46  35 S17G24    30.00S
THREE RIVERS*  PTSUNNY   77  45  32 S16       29.99F

$$
OHZ001>008-015>018-024>025-032100-
NORTHWEST OHIO

CITY           SKY/WX    TMP DP  RH WIND       PRES   REMARKS
DEFIANCE       MOSUNNY   79  46  31 SW14      30.02F
FINDLAY        MOSUNNY   77  45  32 SW15      30.04F
TOLEDO EXPRESS SUNNY     78  43  28 SW15G24   30.02F
TOLEDO METCALF MOSUNNY   79  43  27 SW14      30.03F
LIMA           PTSUNNY   76  47  35 SW15      30.06F

$$
AND FOR LAKE MICHIGAN COASTAL AND OPEN LAKE BUOY OBSERVATIONS

STATION/POSITION TEMP    WIND        PRES    VSBY  WAVE
                 AIR SEA DIR/SP/G                  HT/PER
                 (F)     (DEG/KT/KT) (MB)    (MI)  (FT/S)
CALUMET HARBOR    77     200/ 10/ 13   N/A
MICHIGAN CITY     76     180/ 16/ 21   N/A
BURNS HARBOR      76     230/ 11/ 20 1014.6S
SAINT JOSEPH      64     180/  8/ 11 1015.2F
4 MI NW BRIDGMAN  59 50  220/  4/  6   N/A           1
MICHIGAN CITY     63 51  230/  6/  8   N/A           1/ 3

$$
&&



USA.gov is the U.S. government's official web portal to all federal, state and local government web resources and services.